Stations météo

Publicité
Gourette, France (7775): Température de l'air & dewpoint: 26.10.2020 00:00:00 - 01.11.2020 00:00:00 (CET)Gourette, France (7775): Vitesse du vent & gusts: 26.10.2020 00:00:00 - 01.11.2020 00:00:00 (CET)Gourette, France (7775): Direction du vent: 26.10.2020 00:00:00 - 01.11.2020 00:00:00 (CET)Gourette, France (7775): reduced air pressure: 26.10.2020 00:00:00 - 01.11.2020 00:00:00 (CET)Gourette, France (7775): visibility: 26.10.2020 00:00:00 - 01.11.2020 00:00:00 (CET)Gourette, France (7775): Quantités de précipitations: 26.10.2020 00:00:00 - 01.11.2020 00:00:00 (CET)
Date & Time tt [°C] td [°C] ff [km/h] ff [knt] fx [km/h] fx [knt] dd ppp [hPa] vv [km] rr [mm]
01.11.2020 00:00:00 16,2 13,5 11 6 13 7 W 1023,9 - 0,0
31.10.2020 23:00:00 16,6 13,5 4 2 9 5 WNW 1024,1 - 0,0
31.10.2020 22:00:00 17,0 13,3 2 1 7 4 NW 1024,0 - 0,0
31.10.2020 21:00:00 16,7 13,6 5 3 8 4 W 1023,8 - 0,0
31.10.2020 20:00:00 17,1 13,6 5 3 9 5 NW 1023,9 - 0,0
31.10.2020 19:00:00 17,2 13,5 6 4 13 7 ENE 1024,0 - 0,0
31.10.2020 18:00:00 17,2 13,5 8 4 13 7 E 1023,8 - 0,0
31.10.2020 17:00:00 17,4 13,7 8 4 14 8 ENE 1023,8 - 0,0
31.10.2020 16:00:00 17,7 13,8 11 6 18 10 NE 1023,7 18 0,0
31.10.2020 15:00:00 18,2 14,3 11 6 18 10 NE 1023,8 - 0,0
31.10.2020 14:00:00 18,4 14,3 11 6 18 10 NE 1024,1 - 0,0
31.10.2020 13:00:00 18,4 13,9 9 5 14 8 ENE 1024,6 18 0,0
31.10.2020 12:00:00 19,0 13,0 8 4 13 7 E 1025,0 - 0,0
31.10.2020 11:00:00 18,7 14,0 5 3 11 6 E 1025,2 - 0,0
31.10.2020 10:00:00 19,2 14,5 3 2 9 5 N 1025,3 18 0,0
31.10.2020 09:00:00 17,5 14,0 4 2 8 4 NNW 1025,1 - 0,0
31.10.2020 08:00:00 15,8 12,9 3 1 7 4 W 1025,0 - 0,0
31.10.2020 07:00:00 15,8 12,7 7 4 11 6 NNW 1024,7 - 0,0
31.10.2020 06:00:00 15,7 12,8 11 6 15 8 NW 1024,6 - 0,0
31.10.2020 05:00:00 14,5 12,9 13 7 16 9 NW 1024,8 - 0,0
31.10.2020 04:00:00 14,4 12,8 14 7 16 9 NNW 1024,7 - 0,0
31.10.2020 03:00:00 14,8 13,0 11 6 15 8 NNW 1024,8 - 0,2
31.10.2020 02:00:00 15,1 13,6 10 6 14 7 NNW 1024,9 - 0,0
31.10.2020 01:00:00 15,2 12,9 9 5 11 6 NNW 1025,0 - 0,0
31.10.2020 00:00:00 15,6 14,3 4 2 5 3 WNW 1025,3 - 0,0
30.10.2020 23:00:00 15,1 13,1 0 0 10 5 N 1025,2 - 0,0
30.10.2020 22:00:00 15,4 13,2 9 5 14 8 NNW 1025,2 - 0,0
30.10.2020 21:00:00 15,9 14,3 2 1 4 2 NNW 1024,9 - 0,0
30.10.2020 20:00:00 15,6 14,3 4 2 6 3 SW 1024,6 - 0,0
30.10.2020 19:00:00 15,9 14,4 4 2 5 3 SSW 1024,5 - 0,0
30.10.2020 18:00:00 16,6 14,4 4 2 9 5 E 1024,2 - 0,0
30.10.2020 17:00:00 17,4 14,5 6 4 12 7 SSE 1023,9 - 0,0
30.10.2020 16:00:00 18,8 14,9 7 4 16 9 SSE 1023,8 15 0,0
30.10.2020 15:00:00 18,9 14,8 11 6 24 13 SE 1023,7 - 0,0
30.10.2020 14:00:00 20,1 14,9 15 8 25 14 SE 1023,4 - 0,0
30.10.2020 13:00:00 19,5 14,9 18 10 27 14 SSE 1023,8 - 0,0
30.10.2020 12:00:00 19,7 14,1 15 8 24 13 SSE 1024,1 - 0,0
30.10.2020 11:00:00 20,4 14,3 13 7 20 11 SE 1024,4 - 0,0
30.10.2020 10:00:00 19,8 14,2 11 6 22 12 S 1024,3 - 0,0
30.10.2020 09:00:00 17,3 12,8 13 7 21 11 SSW 1024,1 - 0,0
30.10.2020 08:00:00 15,2 9,8 12 7 16 8 SW 1023,9 - 0,0
30.10.2020 07:00:00 14,3 8,9 16 8 22 12 SSW 1023,2 - 0,0
30.10.2020 06:00:00 13,7 8,7 21 11 21 11 SW 1022,8 - 0,0
30.10.2020 05:00:00 14,1 8,5 8 5 14 8 SW 1022,6 - 0,0
30.10.2020 04:00:00 15,0 8,5 10 5 17 9 NNW 1022,6 15 0,0
30.10.2020 03:00:00 14,7 8,9 5 3 15 8 SE 1022,2 - 0,0
30.10.2020 02:00:00 14,7 9,3 5 3 14 8 E 1022,4 - 0,0
30.10.2020 01:00:00 15,4 8,8 9 5 10 5 SW 1022,2 - 0,0
30.10.2020 00:00:00 14,2 9,0 4 2 11 6 S 1022,6 - 0,0
29.10.2020 23:00:00 17,4 9,3 3 2 9 5 WNW 1022,8 - 0,0
29.10.2020 22:00:00 16,3 8,8 7 4 14 8 SW 1022,3 - 0,0
29.10.2020 21:00:00 15,0 11,6 11 6 18 10 SW 1021,6 - 0,0
29.10.2020 20:00:00 15,1 13,3 16 8 17 9 SW 1021,2 - 0,0
29.10.2020 19:00:00 15,2 13,6 16 9 20 11 SW 1020,6 18 0,0
29.10.2020 18:00:00 16,1 14,3 15 8 18 10 SSW 1020,1 - 0,0
29.10.2020 17:00:00 17,6 14,5 11 6 13 7 S 1020,0 - 0,0
29.10.2020 16:00:00 18,3 14,2 4 2 18 10 SE 1019,9 18 0,0
29.10.2020 15:00:00 19,2 14,5 11 6 24 13 E 1019,5 - 0,0
29.10.2020 14:00:00 20,4 13,8 18 10 34 19 NE 1019,3 - 0,0
29.10.2020 13:00:00 20,9 14,8 27 15 40 21 NNE 1019,1 18 0,0
29.10.2020 12:00:00 20,6 14,3 31 17 42 23 N 1019,4 - 0,0
29.10.2020 11:00:00 18,7 13,5 21 11 29 16 N 1018,7 - 0,0
29.10.2020 10:00:00 18,5 13,4 14 8 22 12 N 1018,8 - 0,0
29.10.2020 09:00:00 15,7 10,2 11 6 16 9 NNW 1018,8 - 0,0
29.10.2020 08:00:00 15,7 10,0 7 4 15 8 NW 1018,6 - 0,0
29.10.2020 07:00:00 14,1 9,3 12 6 15 8 WSW 1018,3 18 0,0
29.10.2020 06:00:00 14,8 6,1 8 4 11 6 WSW 1018,4 - 0,0
29.10.2020 05:00:00 14,6 6,2 7 4 27 15 SW 1018,9 - 0,0
29.10.2020 04:00:00 14,2 6,8 16 9 26 14 SW 1018,9 15 0,0
29.10.2020 03:00:00 13,7 7,0 22 12 29 16 SW 1018,7 - 0,0
29.10.2020 02:00:00 13,6 5,2 20 11 27 15 SW 1019,2 - 0,0
29.10.2020 01:00:00 13,2 6,1 22 12 25 13 SW 1019,5 15 0,0
29.10.2020 00:00:00 13,0 5,6 21 11 22 12 SW 1019,7 - 0,0
28.10.2020 23:00:00 13,6 6,7 14 7 15 8 SW 1020,1 - 0,0
28.10.2020 22:00:00 14,2 7,5 7 4 12 7 SW 1020,2 - 0,0
28.10.2020 21:00:00 15,6 8,3 11 6 15 8 NW 1020,1 - 0,0
28.10.2020 20:00:00 16,0 8,7 7 4 10 5 NW 1019,7 - 0,0
28.10.2020 19:00:00 15,7 9,1 3 2 12 7 NW 1019,3 18 0,0
28.10.2020 18:00:00 15,9 9,8 5 3 11 6 NNW 1019,0 - 0,0
28.10.2020 17:00:00 16,9 10,5 9 5 17 9 SSE 1018,6 - 0,0
28.10.2020 16:00:00 18,6 10,2 12 7 21 11 SSE 1018,4 - 0,0
28.10.2020 15:00:00 19,1 9,6 9 5 21 11 SE 1018,5 - 0,0
28.10.2020 14:00:00 19,7 9,8 13 7 24 13 SE 1018,3 - 0,0
28.10.2020 13:00:00 19,5 8,8 11 6 21 12 ESE 1018,6 - 0,0
28.10.2020 12:00:00 19,5 8,2 11 6 21 11 ESE 1018,7 - 0,0
28.10.2020 11:00:00 19,8 8,2 5 3 12 6 E 1018,7 - 0,0
28.10.2020 10:00:00 19,0 8,9 4 2 8 5 SSE 1018,4 - 0,0
28.10.2020 09:00:00 17,8 9,9 2 1 8 4 ENE 1018,3 - 0,0
28.10.2020 08:00:00 14,7 6,5 0 0 7 4 N 1017,8 - 0,0
28.10.2020 07:00:00 14,4 7,4 0 0 9 5 N 1017,0 18 0,0
28.10.2020 06:00:00 13,8 5,2 9 5 16 9 WNW 1016,8 - 0,0
28.10.2020 05:00:00 14,3 6,4 4 2 10 5 N 1016,2 - 0,0
28.10.2020 04:00:00 14,0 6,8 8 5 16 9 WNW 1016,2 - 0,0
28.10.2020 03:00:00 13,2 7,4 4 2 8 4 NNW 1016,2 - 0,0
28.10.2020 02:00:00 14,1 7,6 0 0 16 8 N 1016,1 - 0,0
28.10.2020 01:00:00 14,5 6,8 12 7 15 8 W 1015,8 - 0,0
28.10.2020 00:00:00 14,0 3,4 9 5 15 8 WSW 1015,5 - 0,0
27.10.2020 23:00:00 15,1 3,9 11 6 23 13 NW 1015,4 - 0,0
27.10.2020 22:00:00 12,4 4,1 19 10 23 12 NNW 1014,9 15 0,0
27.10.2020 21:00:00 14,8 3,0 9 5 24 13 W 1014,0 - 0,0
27.10.2020 20:00:00 14,2 3,0 18 10 27 15 W 1013,4 - 0,0
27.10.2020 19:00:00 14,9 3,7 17 9 25 13 W 1013,0 15 0,0
27.10.2020 18:00:00 14,4 8,8 11 6 15 8 WSW 1012,3 - 0,0
27.10.2020 17:00:00 16,7 8,9 9 5 20 11 E 1011,4 - 0,0
27.10.2020 16:00:00 18,0 8,8 9 5 26 14 ENE 1011,1 20 0,0
27.10.2020 15:00:00 18,0 8,5 21 11 29 16 NE 1010,7 - 0,0
27.10.2020 14:00:00 18,9 9,1 18 10 27 14 ENE 1010,5 - 0,0
27.10.2020 13:00:00 19,1 9,0 17 9 29 16 ENE 1010,4 - 0,0
27.10.2020 12:00:00 19,6 9,8 18 10 26 14 NNE 1010,3 - 0,0
27.10.2020 11:00:00 20,4 9,9 16 9 22 12 NNE 1010,4 - 0,0
27.10.2020 10:00:00 18,6 8,5 11 6 32 17 N 1009,9 - 0,0
27.10.2020 09:00:00 16,8 5,7 21 11 39 21 SSW 1009,2 - 0,0
27.10.2020 08:00:00 13,6 5,0 21 11 34 18 WSW 1008,7 - 0,0
27.10.2020 07:00:00 12,7 3,6 20 11 27 14 W 1008,2 15 0,0
27.10.2020 06:00:00 11,7 4,4 18 10 26 14 WSW 1007,7 - 0,0
27.10.2020 05:00:00 13,2 4,1 15 8 23 13 WSW 1006,9 - 0,0
27.10.2020 04:00:00 12,5 4,7 15 8 27 15 SW 1006,6 15 0,0
27.10.2020 03:00:00 13,5 5,1 21 11 26 14 SW 1006,6 - 0,0
27.10.2020 02:00:00 13,5 5,6 11 6 19 10 SSW 1006,6 - 0,0
27.10.2020 01:00:00 13,9 6,3 12 7 34 18 SSW 1006,5 - 0,0
27.10.2020 00:00:00 14,4 7,4 24 13 44 24 SW 1007,0 - 0,0
26.10.2020 23:00:00 14,4 8,6 18 10 29 15 WSW 1006,9 - 0,0
26.10.2020 22:00:00 14,8 8,7 20 11 40 22 WSW 1006,1 - 0,0
26.10.2020 21:00:00 14,3 10,7 18 10 31 17 WSW 1005,6 - 0,2
26.10.2020 20:00:00 15,6 14,3 5 3 19 11 NW 1005,9 - 0,0
26.10.2020 19:00:00 15,3 12,2 10 5 36 19 WSW 1005,5 - 0,4
26.10.2020 18:00:00 17,4 15,7 13 7 22 12 SW 1005,3 - 0,2
26.10.2020 17:00:00 17,6 15,4 16 9 44 24 SW 1004,8 - 0,4
26.10.2020 16:00:00 18,9 15,0 26 14 66 36 S 1005,1 15 0,0
26.10.2020 15:00:00 19,3 14,1 37 20 65 35 S 1004,9 - 0,0
26.10.2020 14:00:00 20,4 13,6 41 22 73 40 SSE 1005,5 - 0,0
26.10.2020 13:00:00 20,0 13,7 46 25 76 41 S 1006,7 15 0,0
26.10.2020 12:00:00 21,0 14,4 55 30 78 42 S 1007,2 - 0,0
26.10.2020 11:00:00 20,0 15,0 40 21 55 30 S 1008,6 - 0,0
26.10.2020 10:00:00 19,6 15,3 16 9 32 17 SSW 1009,1 15 0,0
26.10.2020 09:00:00 18,0 14,9 15 8 28 15 SSW 1009,9 - 0,0
26.10.2020 08:00:00 15,9 13,9 23 13 34 18 SW 1009,8 - 0,0
26.10.2020 07:00:00 14,7 12,2 14 7 29 16 SSW 1010,1 15 0,0
26.10.2020 06:00:00 14,4 12,1 16 9 26 14 S 1010,4 - 0,0
26.10.2020 05:00:00 13,7 11,9 16 9 22 12 SSW 1011,1 - 0,0
26.10.2020 04:00:00 14,9 12,6 3 1 9 5 W 1011,6 - 0,0
26.10.2020 03:00:00 15,3 13,0 8 4 16 9 NNW 1012,1 - 0,0
26.10.2020 02:00:00 14,7 11,8 12 6 16 8 N 1012,9 - 0,0
26.10.2020 01:00:00 15,3 12,6 9 5 14 7 NNW 1013,5 - 0,0
26.10.2020 00:00:00 15,5 13,2 4 2 9 5 S 1013,9 - 0,0

tt = Température de l'air
td = dewpoint
ff = Vitesse du vent
fx = gusts
dd = Direction du vent
ppp = reduced air pressure
vv = visibility
rr = Quantités de précipitations

stations d'obs. à proximité